[ hide orbit diagram ]
For accurate long-term ephemerides, please instead use our Horizons system.This orbit viewer was implemented using two-body methods, and hence should not be used for determining accurate long-term trajectories (over several years or decades) or planetary encounter circumstances.
Orbital Elements at Epoch 2459000.5 (2020-May-31.0) TDB
Reference: JPL 18 (heliocentric ecliptic J2000)
Element | Value | Uncertainty (1-sigma) | Units |
e | .2033276595785828 | 3.9471e-08 | |
a | 2.649182900717018 | 1.5214e-08 | au |
q | 2.110530741718625 | 1.0437e-07 | au |
i | 5.099460636303999 | 5.9667e-06 | deg |
node | 44.27218895372172 | 5.7118e-05 | deg |
peri | 262.2135350568586 | 5.9282e-05 | deg |
M | 259.2247314476377 | 1.6182e-05 | deg |
tp | 2459441.377367749517 (2021-Aug-14.87736775) | 7.2002e-05 | TDB |
period | 1574.94844389681 4.31 | 1.3567e-05 3.714e-08 | d yr |
n | .2285789108812167 | 1.9691e-09 | deg/d |
Q | 3.18783505971541 | 1.8308e-08 | au |
|
| | Orbit Determination Parameters
Additional Information
|
[ show covariance matrix ]
Physical Parameter Table
Parameter |
Symbol |
Value |
Units |
Sigma |
Reference |
Notes |
absolute magnitude |
H |
16.1 |
|
n/a |
MPO437074 |
|
|
226338 (2003 FQ71) Discovered 2003-Mar-26 by Spacewatch at Kitt Peak |
Reference: 20091202/Numbers.arc | Last Updated: 2009-12-04 |
|
|